QPF
0.00 0.00 0.00 0.00 0.00 0.00 0.00 0.00 0.00 0.00 0.00 0.00 0.00 0.00 0.00 0.00 0.00 0.00 0.00 0.00 0.00 0.00 0.00 0.00 0.00 0.00 0.00 0.00 0.00 0.00 0.00 0.01 0.04 0.07 0.09 0.10 0.09 0.09
0.00 0.00 0.00 0.00 0.00 0.00 0.00 0.00 0.00 0.00 0.00 0.00 0.00 0.00 0.00 0.00 0.00 0.00 0.00 0.00 0.00 0.00 0.00 0.00 0.00 0.00 0.00 0.00 0.00 0.00 0.00 0.00 0.00 0.00 0.02 0.05 0.06 0.05
0.00 0.00 0.00 0.00 0.00 0.00 0.00 0.00 0.00 0.00 0.00 0.00 0.00 0.00 0.00 0.00 0.00 0.00 0.00 0.00 0.00 0.00 0.00 0.00 0.00 0.00 0.00 0.00 0.00 0.00 0.00 0.00 0.00 0.00 0.00 0.02 0.04 0.05
0.00 0.00 0.00 0.00 0.00 0.00 0.00 0.00 0.00 0.00 0.00 0.00 0.00 0.00 0.00 0.00 0.00 0.00 0.00 0.00 0.00 0.00 0.00 0.00 0.00 0.00 0.00 0.00 0.00 0.00 0.00 0.01 0.01 0.00 0.00 0.00 0.01 0.01
0.00 0.00 0.00 0.00 0.00 0.00 0.00 0.00 0.00 0.00 0.00 0.00 0.00 0.00 0.00 0.00 0.00 0.00 0.00 0.00 0.00 0.00 0.00 0.00 0.00 0.00 0.00 0.00 0.00 0.00 0.00 0.00 0.00 0.00 0.00 0.00 0.00 0.00
0.00 0.00 0.00 0.00 0.00 0.00 0.00 0.00 0.00 0.00 0.00 0.00 0.00 0.00 0.00 0.00 0.00 0.00 0.00 0.00 0.00 0.00 0.00 0.00 0.00 0.00 0.00 0.00 0.00 0.00 0.00 0.00 0.00 0.00 0.00 0.00 0.00 0.00
0.00 0.00 0.00 0.00 0.00 0.00 0.00 0.00 0.00 0.00 0.00 0.00 0.00 0.00 0.00 0.00 0.00 0.00 0.00 0.00 0.00 0.00 0.00 0.00 0.00 0.00 0.00 0.00 0.00 0.00 0.00 0.00 0.00 0.00 0.00 0.00 0.00 0.00
0.00 0.00 0.00 0.00 0.00 0.00 0.00 0.00 0.00 0.00 0.00 0.00 0.00 0.00 0.00 0.00 0.00 0.00 0.00 0.00 0.00 0.00 0.00 0.00 0.00 0.00 0.00 0.00 0.00 0.00 0.00 0.00 0.00 0.00 0.00 0.00 0.00 0.00
0.00 0.00 0.00 0.00 0.00 0.00 0.00 0.00 0.00 0.00 0.00 0.00 0.00 0.00 0.00 0.00 0.00 0.00 0.00 0.00 0.00 0.00 0.00 0.00 0.00 0.00 0.00 0.00 0.00 0.00 0.00 0.00 0.00 0.00 0.00 0.00 0.00 0.00
0.00 0.00 0.00 0.00 0.00 0.00 0.00 0.00 0.00 0.00 0.00 0.00 0.00 0.00 0.00 0.00 0.00 0.00 0.00 0.00 0.00 0.00 0.00 0.00 0.00 0.00 0.00 0.00 0.00 0.00 0.00 0.00 0.00 0.00 0.00 0.00 0.00 0.00
0.00 0.00 0.00 0.00 0.00 0.00 0.00 0.00 0.00 0.00 0.00 0.00 0.00 0.00 0.00 0.00 0.00 0.00 0.00 0.00 0.00 0.00 0.00 0.00 0.00 0.00 0.00 0.00 0.00 0.00 0.00 0.00 0.00 0.00 0.00 0.00 0.00 0.00
0.00 0.00 0.00 0.00 0.00 0.00 0.00 0.00 0.00 0.00 0.00 0.00 0.00 0.00 0.00 0.00 0.00 0.00 0.00 0.00 0.00 0.00 0.00 0.00 0.00 0.00 0.00 0.00 0.00 0.00 0.00 0.00 0.00 0.00 0.00 0.00 0.00 0.00
0.00 0.00 0.00 0.00 0.00 0.00 0.00 0.00 0.00 0.00 0.00 0.00 0.00 0.00 0.00 0.00 0.00 0.00 0.00 0.00 0.00 0.00 0.00 0.00 0.00 0.00 0.00 0.00 0.00 0.00 0.00 0.00 0.00 0.00 0.00 0.00 0.00 0.00
0.00 0.00 0.00 0.00 0.00 0.00 0.00 0.00 0.00 0.00 0.00 0.00 0.00 0.00 0.00 0.00 0.00 0.00 0.00 0.00 0.00 0.00 0.00 0.00 0.00 0.00 0.00 0.00 0.00 0.00 0.00 0.00 0.00 0.00 0.00 0.00 0.00 0.00
0.00 0.00 0.00 0.00 0.00 0.00 0.00 0.00 0.00 0.00 0.00 0.00 0.00 0.00 0.00 0.00 0.00 0.00 0.00 0.00 0.00 0.00 0.00 0.00 0.00 0.00 0.00 0.00 0.00 0.00 0.00 0.00 0.00 0.00 0.00 0.00 0.00 0.00
0.00 0.00 0.00 0.00 0.00 0.00 0.00 0.00 0.00 0.00 0.00 0.00 0.00 0.00 0.00 0.00 0.00 0.00 0.00 0.00 0.00 0.00 0.00 0.00 0.00 0.00 0.00 0.00 0.00 0.00 0.00 0.00 0.00 0.00 0.00 0.00 0.00 0.00
0.00 0.00 0.00 0.00 0.00 0.00 0.00 0.00 0.00 0.00 0.00 0.00 0.00 0.00 0.00 0.00 0.00 0.00 0.00 0.00 0.00 0.00 0.00 0.00 0.00 0.00 0.00 0.00 0.00 0.00 0.00 0.00 0.00 0.00 0.00 0.00 0.00 0.00
0.00 0.00 0.00 0.00 0.00 0.00 0.00 0.00 0.00 0.00 0.00 0.00 0.00 0.00 0.00 0.00 0.00 0.00 0.00 0.00 0.00 0.00 0.00 0.00 0.00 0.00 0.00 0.00 0.00 0.00 0.00 0.00 0.00 0.00 0.00 0.00 0.00 0.00
0.00 0.00 0.00 0.00 0.00 0.00 0.00 0.00 0.00 0.00 0.00 0.00 0.00 0.00 0.00 0.00 0.00 0.00 0.00 0.00 0.00 0.00 0.00 0.00 0.00 0.00 0.00 0.00 0.00 0.00 0.00 0.00 0.00 0.00 0.00 0.00 0.00 0.00
0.00 0.00 0.00 0.00 0.00 0.00 0.00 0.00 0.00 0.00 0.00 0.00 0.00 0.00 0.00 0.00 0.00 0.00 0.00 0.00 0.00 0.00 0.00 0.00 0.00 0.00 0.00 0.00 0.00 0.00 0.00 0.00 0.00 0.00 0.00 0.00 0.00 0.00
0.00 0.00 0.00 0.00 0.00 0.00 0.00 0.00 0.00 0.00 0.00 0.00 0.00 0.00 0.00 0.00 0.00 0.00 0.00 0.00 0.00 0.00 0.00 0.00 0.00 0.00 0.00 0.00 0.00 0.00 0.00 0.00 0.00 0.00 0.00 0.00 0.00 0.00
0.00 0.00 0.00 0.00 0.00 0.00 0.00 0.00 0.00 0.00 0.00 0.00 0.00 0.00 0.00 0.00 0.00 0.00 0.00 0.00 0.00 0.00 0.00 0.00 0.00 0.00 0.00 0.00 0.00 0.00 0.00 0.00 0.00 0.00 0.00 0.00 0.00 0.00
0.00 0.00 0.00 0.00 0.00 0.00 0.00 0.00 0.00 0.00 0.00 0.00 0.00 0.00 0.00 0.00 0.00 0.00 0.00 0.00 0.00 0.00 0.00 0.00 0.00 0.00 0.00 0.00 0.00 0.00 0.00 0.00 0.00 0.00 0.00 0.00 0.00 0.00
MSLP
1013.53 1013.29 1012.98 1013.17 1012.77 1012.78 1011.72 1011.66 1011.96 1011.72 1009.95 1009.60 1010.13 1010.92 1010.95 1011.31 1011.46 1011.27 1010.87 1010.65 1010.39 1010.39 1010.14 1010.06 1009.52 1009.02 1008.74 1008.60 1008.08 1008.03 1008.10 1007.77 1007.62 1007.68 1007.84 1008.05 1008.39 1008.92
1014.33 1013.87 1013.70 1013.55 1013.25 1013.25 1013.20 1012.74 1013.03 1013.31 1011.94 1011.39 1011.53 1011.86 1011.95 1011.79 1011.78 1011.76 1011.36 1011.04 1010.84 1010.80 1010.13 1009.67 1009.31 1008.96 1008.59 1008.35 1007.97 1007.50 1007.49 1007.20 1006.80 1006.74 1006.72 1007.03 1007.25 1007.87
1015.00 1014.50 1014.35 1013.99 1013.75 1013.58 1013.12 1013.52 1014.13 1014.01 1013.05 1012.29 1012.34 1012.35 1012.35 1012.01 1012.07 1012.19 1011.96 1011.71 1011.44 1010.81 1010.25 1009.73 1009.50 1009.22 1009.11 1008.41 1007.75 1007.33 1007.13 1006.69 1006.29 1006.17 1005.92 1006.12 1006.20 1006.72
1015.79 1015.39 1014.99 1014.44 1014.30 1014.19 1014.19 1014.69 1014.48 1014.28 1014.13 1013.86 1013.57 1013.25 1013.09 1013.16 1013.23 1012.74 1012.24 1011.81 1011.39 1010.72 1010.39 1009.91 1009.84 1009.58 1009.09 1008.69 1007.91 1007.60 1007.30 1006.81 1006.18 1005.88 1005.53 1005.73 1005.74 1005.83
1016.14 1015.71 1015.36 1015.05 1014.91 1014.78 1014.69 1014.59 1014.60 1014.45 1014.43 1014.54 1014.18 1013.88 1013.58 1013.47 1013.23 1012.69 1012.17 1012.22 1011.87 1011.24 1010.57 1010.16 1009.82 1009.57 1008.95 1008.45 1008.20 1007.70 1007.32 1006.90 1006.51 1005.82 1005.30 1005.08 1004.99 1004.96
1016.55 1016.16 1015.81 1015.47 1015.19 1014.96 1014.79 1014.74 1014.77 1014.76 1014.76 1014.73 1014.50 1014.49 1014.15 1013.54 1013.48 1013.10 1012.57 1012.44 1011.65 1011.32 1011.04 1010.50 1010.22 1009.67 1009.13 1008.63 1008.13 1007.57 1007.30 1006.96 1006.38 1005.82 1005.49 1005.03 1004.34 1004.03
1017.01 1016.71 1016.36 1015.92 1015.51 1015.10 1014.90 1014.94 1014.99 1015.04 1014.90 1014.86 1014.86 1014.77 1014.41 1013.95 1013.82 1013.65 1013.33 1012.91 1011.86 1011.42 1011.05 1010.82 1010.47 1009.89 1009.21 1008.72 1008.18 1007.61 1007.24 1006.65 1006.22 1005.62 1005.54 1004.97 1004.19 1003.39
1017.33 1016.91 1016.53 1016.17 1015.76 1015.32 1014.81 1014.49 1014.35 1014.47 1014.73 1014.87 1014.97 1014.86 1014.71 1014.42 1014.15 1013.92 1013.44 1013.22 1012.48 1011.54 1011.44 1010.68 1010.68 1010.04 1009.30 1008.61 1008.23 1007.75 1007.04 1006.27 1005.85 1005.11 1004.86 1004.69 1003.95 1003.52
1017.18 1016.88 1016.50 1016.12 1015.85 1015.51 1015.09 1014.76 1014.52 1014.22 1013.94 1014.03 1014.31 1014.34 1014.16 1013.90 1013.78 1013.36 1013.34 1013.10 1013.06 1011.66 1011.54 1010.78 1010.21 1010.35 1009.37 1008.40 1008.03 1007.54 1006.86 1006.17 1005.77 1004.83 1004.87 1004.40 1003.91 1003.24
1016.94 1016.69 1016.38 1015.98 1015.59 1015.04 1014.81 1014.72 1014.42 1014.11 1013.86 1013.80 1013.64 1013.39 1013.36 1013.20 1013.00 1012.95 1012.86 1012.91 1012.21 1012.14 1011.21 1010.54 1010.25 1010.06 1009.11 1008.13 1007.67 1007.13 1006.91 1006.23 1005.90 1005.24 1004.61 1004.32 1003.92 1002.73
1016.68 1016.39 1016.05 1015.70 1015.28 1014.75 1014.48 1014.36 1014.12 1013.91 1013.44 1013.08 1012.85 1012.87 1012.65 1012.15 1012.03 1012.29 1012.35 1012.73 1012.49 1011.82 1010.81 1011.02 1010.68 1010.02 1009.20 1008.24 1007.84 1007.44 1006.97 1006.56 1005.71 1004.95 1004.39 1004.30 1003.59 1002.16
1016.44 1016.19 1015.90 1015.51 1015.03 1014.52 1014.13 1014.04 1013.89 1013.71 1013.32 1012.91 1012.69 1012.49 1012.33 1012.12 1011.75 1011.88 1012.16 1012.46 1012.42 1011.72 1011.00 1011.28 1010.75 1010.45 1009.60 1008.15 1007.64 1007.31 1006.74 1006.27 1005.61 1005.11 1004.51 1003.89 1003.08 1002.13
1015.94 1015.84 1015.56 1015.28 1014.82 1014.34 1013.97 1013.63 1013.44 1012.95 1012.65 1012.57 1012.45 1012.28 1012.06 1011.77 1011.54 1011.50 1011.56 1011.78 1011.96 1011.63 1010.82 1010.93 1010.79 1010.68 1010.59 1009.21 1007.93 1007.30 1006.69 1005.87 1005.41 1004.77 1004.19 1003.70 1003.00 1002.36
1015.35 1015.27 1015.04 1014.74 1014.29 1014.06 1013.79 1013.48 1013.09 1012.71 1012.67 1012.56 1012.39 1012.14 1011.95 1011.76 1011.47 1011.31 1011.26 1011.31 1011.17 1010.90 1010.52 1010.73 1010.77 1010.73 1010.31 1009.48 1008.38 1006.86 1006.25 1005.59 1005.15 1004.45 1003.93 1003.45 1002.81 1002.05
1014.75 1014.64 1014.24 1014.07 1013.88 1013.77 1013.62 1013.16 1012.76 1012.81 1012.67 1012.50 1012.14 1011.83 1011.75 1011.43 1011.27 1011.07 1010.81 1010.62 1010.45 1010.18 1009.89 1009.84 1009.96 1009.82 1009.77 1009.04 1008.06 1007.05 1006.12 1005.01 1004.87 1004.16 1003.68 1003.37 1002.87 1002.32
1014.44 1014.28 1014.15 1013.82 1013.73 1013.52 1013.27 1013.06 1012.83 1012.57 1012.35 1012.10 1011.79 1011.47 1011.26 1011.16 1011.05 1010.75 1010.64 1010.26 1010.05 1009.39 1009.23 1009.09 1009.19 1009.19 1008.87 1008.38 1007.81 1006.45 1005.57 1005.57 1004.32 1003.96 1003.62 1003.07 1002.53 1002.10
1013.62 1013.83 1013.90 1013.74 1013.58 1013.38 1013.09 1012.80 1012.53 1012.32 1012.07 1011.79 1011.58 1011.28 1011.01 1010.84 1010.66 1010.42 1010.35 1010.06 1009.81 1009.11 1008.67 1008.76 1008.64 1008.43 1008.02 1007.49 1006.67 1005.90 1004.95 1004.62 1003.94 1003.62 1003.32 1002.66 1002.13 1001.74
1013.49 1013.67 1013.73 1013.67 1013.49 1013.18 1012.87 1012.55 1012.28 1011.96 1011.62 1011.40 1011.18 1011.00 1010.80 1010.61 1010.33 1010.15 1009.97 1009.60 1009.13 1008.73 1008.37 1008.30 1008.16 1007.75 1007.18 1006.06 1005.51 1004.73 1004.40 1003.85 1003.36 1002.89 1002.78 1002.42 1001.59 1001.20
1013.53 1013.57 1013.64 1013.51 1013.22 1012.90 1012.56 1012.22 1011.78 1011.43 1011.14 1010.96 1010.72 1010.44 1010.26 1010.03 1009.75 1009.56 1009.32 1008.99 1008.56 1008.25 1007.99 1007.74 1007.65 1007.75 1006.93 1005.65 1004.71 1004.22 1003.64 1003.00 1002.88 1002.48 1002.17 1002.00 1001.42 1000.79
1013.45 1013.39 1013.31 1013.14 1012.84 1012.51 1012.14 1011.74 1011.27 1010.88 1010.57 1010.25 1009.97 1009.75 1009.54 1009.41 1009.12 1008.78 1008.54 1008.33 1008.01 1007.71 1007.37 1007.08 1006.92 1006.82 1006.52 1005.46 1004.36 1003.76 1003.43 1002.73 1002.07 1001.78 1001.39 1001.03 1000.56 1000.20
1013.25 1013.09 1012.99 1012.70 1012.29 1011.87 1011.43 1011.04 1010.70 1010.16 1009.70 1009.32 1008.97 1008.74 1008.51 1008.48 1008.16 1007.94 1007.70 1007.32 1006.95 1006.75 1006.38 1006.09 1005.73 1005.46 1005.21 1004.79 1003.67 1002.77 1002.32 1001.88 1001.40 1000.83 1000.66 1000.61 1000.08 999.74
1012.92 1012.70 1012.44 1012.09 1011.68 1011.26 1010.80 1010.30 1009.75 1009.20 1008.71 1008.36 1007.97 1007.70 1007.47 1007.41 1007.25 1007.10 1006.88 1006.64 1006.29 1005.97 1005.48 1005.07 1004.84 1004.79 1004.49 1004.02 1002.90 1002.15 1001.64 1001.00 1000.27 999.62 999.32 999.66 999.60 998.89
1012.54 1012.25 1011.85 1011.41 1010.98 1010.52 1009.96 1009.39 1008.84 1008.23 1007.74 1007.23 1006.80 1006.45 1006.29 1006.18 1006.10 1006.00 1005.84 1005.60 1005.28 1004.92 1004.59 1004.18 1003.98 1003.86 1003.39 1002.98 1002.29 1001.37 1000.69 1000.10 999.62 998.88 998.05 997.99 997.85 997.95
Thickness
5477 5483 5490 5491 5496 5501 5512 5514 5512 5522 5537 5539 5537 5530 5534 5534 5536 5539 5546 5552 5555 5560 5565 5569 5578 5584 5588 5593 5599 5604 5605 5614 5620 5622 5621 5622 5622 5619
5469 5475 5478 5481 5486 5487 5488 5493 5494 5491 5508 5509 5508 5507 5509 5513 5516 5518 5525 5529 5535 5539 5550 5555 5564 5571 5576 5581 5587 5594 5598 5604 5612 5616 5618 5617 5620 5617
5463 5466 5467 5470 5472 5473 5478 5476 5470 5470 5479 5487 5486 5488 5489 5497 5499 5499 5503 5507 5512 5521 5531 5538 5543 5551 5556 5564 5575 5582 5587 5595 5603 5607 5613 5612 5616 5614
5452 5453 5455 5458 5456 5455 5455 5451 5453 5454 5457 5458 5460 5465 5468 5471 5472 5478 5486 5492 5497 5503 5510 5516 5522 5527 5535 5542 5552 5562 5570 5580 5590 5595 5602 5602 5606 5609
5441 5443 5444 5444 5443 5442 5441 5440 5440 5441 5441 5441 5443 5446 5450 5453 5457 5464 5470 5471 5474 5482 5489 5497 5503 5508 5516 5524 5531 5541 5551 5560 5568 5579 5588 5593 5598 5603
5426 5426 5426 5426 5427 5427 5427 5427 5426 5424 5423 5424 5427 5426 5429 5436 5437 5443 5448 5452 5459 5464 5468 5476 5481 5489 5494 5503 5511 5521 5530 5539 5550 5561 5568 5575 5586 5595
5410 5408 5408 5408 5406 5406 5407 5406 5405 5403 5404 5406 5407 5407 5410 5415 5417 5419 5424 5428 5438 5445 5453 5455 5462 5469 5477 5482 5489 5500 5508 5521 5531 5543 5547 5558 5571 5583
5397 5395 5394 5393 5392 5393 5393 5394 5394 5390 5389 5387 5387 5389 5390 5392 5396 5399 5405 5408 5416 5424 5431 5438 5441 5448 5458 5467 5471 5479 5490 5503 5514 5526 5534 5541 5555 5564
5386 5383 5382 5381 5376 5374 5374 5375 5375 5377 5378 5378 5376 5375 5377 5378 5382 5387 5387 5393 5394 5405 5412 5422 5428 5429 5440 5448 5455 5463 5473 5484 5495 5510 5516 5525 5538 5549
5375 5372 5370 5367 5365 5366 5362 5359 5359 5358 5358 5359 5361 5363 5362 5362 5365 5370 5372 5375 5383 5384 5396 5404 5409 5413 5422 5433 5440 5448 5455 5466 5475 5487 5500 5509 5519 5535
5365 5361 5359 5356 5354 5353 5350 5347 5346 5344 5346 5346 5347 5345 5346 5349 5351 5353 5354 5354 5360 5368 5378 5382 5387 5396 5405 5414 5421 5428 5436 5444 5459 5472 5483 5490 5503 5521
5353 5349 5346 5344 5341 5340 5338 5334 5332 5330 5330 5331 5331 5330 5331 5331 5332 5333 5334 5334 5339 5348 5353 5355 5365 5372 5386 5400 5407 5413 5423 5431 5441 5452 5464 5476 5489 5506
5345 5338 5334 5332 5330 5328 5327 5326 5323 5324 5324 5319 5317 5315 5314 5315 5315 5315 5315 5314 5316 5325 5330 5334 5344 5348 5353 5377 5390 5396 5406 5418 5428 5438 5450 5462 5476 5488
5340 5331 5326 5324 5323 5320 5317 5314 5312 5310 5305 5303 5301 5300 5299 5298 5297 5296 5295 5295 5298 5303 5306 5306 5317 5321 5335 5349 5368 5384 5390 5403 5413 5426 5435 5447 5460 5475
5334 5326 5325 5321 5318 5312 5307 5305 5302 5295 5291 5289 5288 5287 5285 5284 5283 5281 5281 5279 5280 5280 5282 5285 5291 5301 5312 5328 5344 5363 5377 5386 5396 5411 5423 5433 5446 5459
5325 5319 5315 5313 5308 5303 5298 5292 5287 5283 5279 5278 5277 5275 5272 5267 5266 5264 5263 5263 5263 5265 5260 5262 5268 5277 5291 5304 5319 5341 5357 5367 5378 5393 5406 5421 5433 5444
5322 5313 5307 5303 5298 5292 5286 5280 5274 5269 5266 5263 5261 5260 5259 5256 5253 5249 5247 5245 5246 5248 5244 5238 5241 5252 5268 5282 5300 5315 5336 5351 5364 5372 5389 5406 5419 5432
5314 5306 5301 5295 5289 5283 5276 5269 5262 5259 5256 5253 5250 5247 5245 5241 5238 5234 5233 5234 5234 5232 5229 5223 5223 5230 5243 5265 5279 5296 5311 5329 5343 5359 5369 5387 5405 5417
5304 5298 5292 5286 5280 5274 5267 5261 5258 5256 5253 5250 5246 5243 5237 5233 5230 5225 5223 5224 5224 5222 5219 5214 5211 5207 5221 5241 5256 5272 5290 5305 5322 5339 5352 5364 5385 5400
5298 5293 5287 5281 5276 5271 5266 5262 5259 5256 5252 5249 5245 5240 5234 5229 5225 5222 5219 5217 5216 5214 5212 5208 5199 5203 5209 5222 5237 5250 5262 5282 5300 5318 5335 5349 5366 5384
5292 5287 5282 5278 5275 5272 5268 5264 5260 5257 5254 5251 5247 5241 5235 5229 5225 5220 5217 5219 5218 5216 5214 5211 5208 5209 5209 5213 5226 5237 5248 5264 5283 5301 5314 5329 5346 5363
5287 5283 5280 5278 5275 5271 5268 5266 5263 5260 5257 5253 5248 5243 5238 5231 5227 5221 5218 5215 5214 5213 5213 5213 5211 5208 5209 5211 5220 5228 5237 5249 5266 5287 5304 5315 5327 5348
5284 5281 5280 5279 5277 5274 5272 5270 5267 5264 5260 5256 5252 5247 5241 5236 5230 5227 5224 5222 5221 5220 5219 5219 5216 5214 5215 5217 5224 5230 5236 5244 5254 5271 5290 5304 5318 5330